CAPE
123 214 258 11 23 155 17 230 3 1 176 380 497 128 345 711 895 1161 1345 1785 2041 1726 1656 1419 1471 1180 1071 1127 1064 1068 538 436 731 802 373 605 638 648 680 689 629 650 707
350 206 256 253 188 72 312 62 263 49 60 454 69 64 149 259 687 996 1063 1527 2169 2133 1496 1097 1016 1059 1304 1163 945 978 975 750 557 321 289 237 383 760 670 592 582 661 583
544 34 64 175 119 143 27 5 242 141 105 203 48 271 194 141 323 723 931 1082 1769 2022 1777 1506 928 1090 1292 913 689 819 678 546 420 294 265 388 565 938 839 675 528 504 445
538 388 5 93 0 176 0 0 99 232 116 49 46 320 332 414 400 416 515 569 899 1400 1963 1774 1607 1541 770 513 495 565 576 546 477 628 932 902 807 802 759 661 441 309 362
374 220 341 491 121 106 146 14 54 40 59 37 12 17 150 370 489 477 554 508 399 453 538 1483 1680 1530 819 870 921 1072 1031 1188 1371 1137 1062 787 772 747 669 573 405 259 267
41 33 235 188 82 28 6 105 123 23 140 33 39 47 26 21 179 405 391 526 457 639 514 539 1147 1067 1558 1242 1441 1176 1005 975 1132 924 1276 1281 1036 1007 774 565 474 234 165
0 0 274 338 0 14 9 268 44 35 100 31 0 9 9 35 0 34 245 419 587 611 430 431 686 829 773 1843 1798 1632 1056 877 772 799 920 794 479 736 689 521 272 209 80
316 35 202 489 102 132 64 420 285 217 46 8 18 69 0 0 0 0 13 222 245 681 635 424 352 465 246 366 739 1494 1603 1069 515 412 586 834 491 478 407 347 312 193 13
449 260 462 598 146 273 373 361 350 150 8 12 20 25 0 0 2 18 0 0 0 451 732 663 593 448 371 160 375 892 1500 1218 765 315 384 709 621 365 321 396 400 226 21
740 896 815 699 91 431 332 321 745 102 30 37 5 50 11 4 0 18 31 72 0 173 280 218 746 676 527 307 339 622 1000 1068 668 546 389 540 717 374 268 315 462 366 33
811 1027 539 604 658 642 420 388 866 777 402 276 10 24 0 14 61 81 89 93 2 0 19 70 48 251 144 153 325 617 1111 780 524 425 685 827 833 336 181 110 231 285 82
1022 872 679 798 561 365 288 469 628 194 473 772 168 176 13 44 282 277 84 27 0 0 24 7 1 53 46 30 215 746 777 723 435 271 238 364 610 640 207 166 94 96 73
1161 1166 989 882 671 683 864 478 812 1136 719 886 965 349 226 243 0 120 11 122 160 93 85 83 50 18 133 99 118 923 1059 654 424 143 0 15 83 250 517 632 594 436 287
1224 1396 955 1042 1185 831 712 672 797 724 1049 722 752 1106 779 374 588 208 0 0 47 45 266 239 126 90 10 97 164 486 554 540 350 114 0 0 0 0 11 89 182 279 300
799 1296 964 1089 977 1079 897 841 645 738 939 1102 817 493 872 884 419 470 180 0 11 100 44 342 686 284 186 125 218 361 543 271 202 69 0 0 0 0 0 0 0 0 0
743 961 1186 1012 1024 1031 1070 1030 653 811 946 901 1195 1348 812 871 722 1081 1083 230 89 0 134 87 167 536 864 547 435 499 350 305 208 98 0 0 0 0 0 0 0 0 0
273 656 1344 1083 1131 1214 899 1302 833 732 1037 880 1070 1060 1248 1105 1067 993 1302 1356 1150 326 355 231 213 832 1015 755 863 713 677 363 286 415 301 71 0 0 0 0 0 0 0
618 1051 1464 1244 1201 1351 1048 879 1163 1128 1153 1011 1087 1291 1367 1659 1525 1145 1193 1349 1256 1111 1032 1106 421 873 1134 1640 1586 1605 1675 1719 1659 1684 1361 653 178 16 0 0 0 0 0
75 1342 1429 1549 1378 1376 1400 1240 1103 1103 1025 1135 1191 1318 1324 1116 1567 1667 1418 1472 1438 1595 1463 1426 1805 1327 1679 1416 1494 1317 1481 1841 1901 1909 1890 1616 1254 2200 2000 266 12 0 0
0 377 1483 1365 1298 1295 1259 1375 1233 1174 1148 1114 1205 1282 1464 1481 1239 1349 1735 1867 1900 1802 1609 1439 1325 1426 1512 1692 1468 1848 1720 1180 1248 1555 1614 1308 2499 2348 2572 2524 1567 226 0
13 134 856 1379 1346 1206 1090 965 1139 1221 1229 1241 1264 1326 1541 1564 1669 1621 1678 1808 1880 1833 1861 2018 2039 1962 2078 2232 2178 1722 1518 1196 1415 1615 1645 2734 2490 2486 2541 2474 1828 33 0
337 194 984 1237 1234 1418 1207 1136 1163 1292 1323 1382 1397 1337 1280 1552 1561 1661 1644 1981 2041 2066 2135 2190 2344 2548 2282 1689 1379 1370 1269 1513 1925 1707 2620 2455 2260 2474 2412 2413 0 0 0
0 527 327 1080 1461 1358 1388 723 777 1180 1456 1566 1531 1559 1535 1812 1734 1754 1683 912 561 1380 2112 2162 2171 1782 1610 1433 1326 1462 1531 1601 1956 2187 2560 2972 2177 2440 2233 1393 0 0 0
11 0 718 525 921 1402 1652 677 368 857 1001 1141 1672 1779 1710 1742 1606 1605 1609 1665 1578 1217 615 102 445 1175 1240 1335 1455 1747 1726 1877 2283 2738 2121 2052 2093 2569 2170 0 0 0 0
602 37 293 1242 1078 1026 1051 675 26 649 968 977 913 1289 1638 1672 1648 1640 1459 1657 1668 1773 2098 1625 835 851 795 898 611 1353 1763 2123 2407 1812 2210 2786 2373 2489 1726 31 0 0 0
791 784 428 375 1129 1495 1288 468 1 1025 810 761 845 908 1095 1659 1846 1629 1161 1448 1433 1358 1115 981 1219 886 333 361 396 109 1279 1742 1922 2058 2156 2724 2525 1144 509 104 0 0 0
CIN
-106 -155 -132 -225 -207 -189 -121 -170 -27 -17 -166 -142 -115 -159 -129 -108 -94 -63 -37 -1 -0 -0 -0 -0 -0 -1 -0 -0 -0 -0 -28 -37 -0 -0 -20 -0 -0 -0 -0 -0 -0 -0 -0
-115 -134 -130 -129 -167 -202 -174 -206 -208 -212 -177 -144 -156 -156 -144 -149 -130 -107 -87 -27 -0 -0 -1 -13 -12 -7 -0 -0 -7 -3 -2 -6 -28 -51 -42 -41 -9 -0 -0 -0 -0 -0 -0
-96 -162 -196 -142 -161 -157 -172 -207 -192 -225 -160 -139 -161 -116 -132 -167 -143 -128 -96 -70 -12 -1 -2 -3 -29 -12 -1 -21 -36 -19 -26 -35 -57 -83 -71 -26 -0 -0 -0 -0 -0 -0 -0
-125 -135 -29 -161 -0 -136 -0 -0 -223 -159 -188 -128 -217 -97 -126 -138 -140 -151 -147 -125 -101 -53 -6 -2 -3 -1 -38 -68 -58 -42 -41 -42 -70 -39 -6 -7 -9 -1 -0 -4 -18 -28 -15
-130 -146 -134 -118 -163 -179 -148 -140 -169 -123 -220 -122 -132 -159 -148 -125 -132 -139 -150 -161 -173 -136 -122 -31 -17 -14 -48 -24 -7 -0 -4 -3 -0 -13 -17 -45 -36 -27 -26 -36 -62 -80 -58
-191 -187 -156 -179 -226 -154 -174 -166 -145 -153 -152 -102 -59 -135 -211 -194 -205 -156 -162 -149 -183 -142 -157 -131 -55 -55 -21 -20 -1 -13 -48 -65 -48 -78 -30 -24 -42 -31 -52 -73 -72 -113 -105
-0 -0 -134 -139 -1 -131 -148 -102 -132 -95 -145 -119 -0 -121 -153 -290 -0 -342 -225 -176 -162 -164 -221 -218 -161 -119 -144 -21 -12 -17 -103 -143 -167 -157 -123 -137 -195 -120 -110 -127 -171 -156 -197
-141 -164 -157 -108 -202 -149 -146 -97 -87 -89 -130 -161 -81 -184 -0 -0 -0 -0 -451 -258 -276 -167 -188 -277 -333 -303 -388 -349 -261 -113 -82 -167 -279 -292 -234 -164 -228 -213 -216 -214 -192 -198 -214
-125 -133 -117 -112 -135 -127 -96 -93 -96 -116 -76 -119 -174 -89 -0 -0 -189 -282 -0 -49 -17 -268 -220 -246 -297 -351 -409 -494 -405 -280 -164 -204 -273 -363 -328 -230 -233 -290 -277 -218 -182 -218 -300
-101 -82 -93 -101 -142 -108 -97 -95 -75 -165 -137 -72 -172 -154 -160 -122 -0 -244 -374 -337 -0 -359 -377 -415 -276 -328 -395 -490 -503 -408 -309 -284 -352 -352 -364 -300 -249 -323 -338 -283 -203 -203 -306
-87 -81 -94 -96 -94 -101 -116 -102 -69 -88 -124 -117 -156 -143 -0 -174 -293 -251 -219 -244 -23 -0 -499 -502 -520 -465 -528 -557 -527 -468 -355 -399 -468 -463 -348 -270 -253 -360 -388 -389 -318 -267 -323
-76 -89 -96 -93 -102 -125 -121 -101 -103 -121 -106 -99 -175 -203 -117 -155 -141 -159 -298 -172 -0 -0 -486 -238 -51 -583 -613 -652 -590 -438 -456 -493 -577 -627 -582 -480 -344 -284 -386 -364 -361 -353 -324
-88 -79 -96 -106 -115 -101 -89 -113 -91 -72 -94 -83 -90 -124 -182 -194 -0 -241 -237 -306 -269 -368 -372 -475 -515 -630 -554 -611 -614 -408 -412 -516 -561 -679 -0 -774 -625 -489 -353 -275 -248 -261 -274
-78 -102 -103 -102 -94 -112 -113 -119 -103 -107 -96 -105 -91 -107 -134 -180 -190 -256 -0 -0 -257 -365 -361 -309 -496 -547 -663 -617 -608 -553 -480 -507 -617 -713 -0 -0 -0 -0 -676 -518 -472 -395 -350
-115 -120 -120 -109 -113 -105 -116 -121 -127 -110 -100 -106 -118 -142 -131 -143 -206 -204 -308 -0 -245 -214 -312 -271 -205 -411 -552 -587 -516 -482 -476 -569 -626 -763 -0 -0 -0 -0 -0 -0 -0 -0 -0
-117 -130 -113 -112 -118 -109 -111 -118 -139 -125 -103 -106 -106 -101 -141 -148 -160 -140 -152 -295 -367 -0 -227 -358 -367 -310 -284 -332 -390 -466 -510 -560 -609 -705 -0 -0 -0 -0 -0 -0 -0 -0 -0
-184 -129 -108 -121 -103 -99 -125 -95 -135 -139 -106 -108 -103 -106 -92 -124 -126 -151 -140 -141 -171 -333 -256 -334 -443 -298 -258 -316 -324 -397 -437 -499 -571 -532 -601 -789 -0 -0 -0 -0 -0 -0 -0
-159 -121 -120 -124 -105 -91 -117 -139 -95 -95 -109 -117 -106 -105 -94 -72 -92 -165 -167 -127 -145 -205 -195 -170 -356 -265 -211 -168 -204 -226 -213 -245 -278 -262 -319 -516 -710 -890 -0 -0 -0 -0 -0
-321 -115 -119 -114 -101 -88 -99 -117 -114 -105 -128 -110 -97 -104 -103 -132 -83 -96 -136 -144 -158 -151 -191 -197 -163 -265 -220 -235 -229 -290 -258 -208 -221 -216 -196 -246 -307 -122 -147 -684 -177 -0 -0
-0 -215 -104 -106 -101 -101 -105 -106 -114 -110 -120 -126 -113 -113 -96 -106 -137 -127 -99 -96 -100 -119 -156 -193 -228 -232 -245 -220 -270 -192 -236 -391 -361 -289 -281 -309 -105 -126 -85 -79 -248 -682 -0
-256 -251 -122 -88 -82 -80 -91 -117 -113 -123 -115 -118 -128 -127 -107 -100 -82 -102 -100 -100 -100 -108 -113 -104 -130 -154 -164 -137 -117 -225 -283 -359 -345 -320 -271 -100 -122 -112 -109 -87 -198 -187 -0
-208 -241 -129 -88 -83 -59 -62 -98 -99 -105 -126 -109 -109 -142 -144 -88 -108 -102 -115 -82 -80 -88 -82 -80 -75 -65 -131 -210 -286 -285 -321 -275 -201 -287 -103 -91 -134 -85 -77 -71 -0 -0 -0
-0 -172 -217 -95 -74 -71 -50 -151 -153 -92 -98 -108 -115 -103 -118 -69 -85 -89 -105 -249 -357 -222 -89 -86 -94 -166 -187 -222 -278 -265 -261 -255 -191 -183 -114 -33 -142 -62 -77 -279 -0 -0 -0
-54 -0 -143 -181 -105 -74 -55 -188 -265 -123 -111 -133 -107 -105 -111 -99 -112 -97 -96 -102 -135 -210 -346 -277 -449 -248 -239 -256 -256 -208 -239 -221 -153 -104 -180 -158 -160 -42 -69 -0 -0 -0 -0
-194 -330 -283 -74 -104 -126 -131 -199 -502 -162 -104 -133 -174 -143 -116 -115 -126 -101 -108 -97 -125 -148 -137 -189 -328 -347 -372 -338 -486 -312 -213 -132 -90 -202 -134 -44 -91 -29 -101 -594 -0 -0 -0
-172 -149 -217 -242 -125 -77 -98 -280 -83 -95 -133 -166 -160 -188 -185 -117 -117 -137 -164 -126 -145 -201 -222 -261 -238 -352 -576 -595 -592 -315 -310 -177 -137 -136 -143 -30 -43 -232 -359 -596 -0 -0 -0
Wind_Speed
4 4 3 2 3 3 1 1 1 1 3 4 1 6 7 6 5 3 2 10 8 9 9 8 7 6 5 5 4 4 3 2 0 0 2 3 3 3 4 6 6 7 8
4 4 4 3 2 3 4 4 4 3 2 2 4 6 5 5 6 5 3 5 10 8 9 8 8 7 7 6 5 5 5 3 3 2 2 3 4 4 4 5 6 7 7
4 5 3 2 2 2 5 3 5 1 2 2 1 5 5 5 5 5 3 2 3 9 10 9 8 8 7 7 6 6 5 5 5 5 4 5 5 6 5 5 5 6 5
6 5 4 4 4 4 3 2 3 2 2 1 3 4 5 4 5 5 4 4 4 4 7 9 9 9 9 8 7 7 7 7 7 7 7 6 6 6 5 4 4 4 3
6 5 3 2 4 3 3 3 2 4 2 2 2 2 2 4 5 5 5 5 5 4 3 7 10 9 10 9 8 9 9 8 8 8 7 7 7 6 5 4 2 1 1
6 5 4 2 4 2 2 2 2 2 3 3 2 3 2 3 3 4 5 5 5 5 5 5 4 4 11 11 10 10 10 10 9 9 8 7 6 6 5 3 3 1 1
5 5 3 3 3 3 3 1 1 3 0 2 3 2 2 3 4 4 4 4 5 6 5 5 4 3 4 12 11 10 11 11 10 9 7 6 6 5 4 3 3 3 3
6 5 5 4 5 2 4 2 2 2 1 1 3 1 1 4 1 5 3 5 6 4 5 6 5 6 5 4 7 11 11 11 11 10 9 7 6 5 5 4 4 5 5
6 7 5 4 4 3 4 3 2 3 2 1 2 4 2 3 2 2 1 3 5 5 5 5 6 6 6 5 8 9 12 11 12 11 10 8 8 8 7 7 7 7 7
6 6 6 6 6 3 4 3 3 2 3 2 2 2 3 4 2 2 2 1 2 5 6 5 5 7 6 5 10 12 12 11 12 12 12 11 10 11 10 10 10 9 9
6 6 7 6 5 3 3 4 2 4 2 2 2 1 1 0 1 3 2 3 2 4 4 5 5 5 6 6 5 7 13 12 13 14 14 14 13 14 13 13 13 13 13
4 5 6 6 6 5 5 3 3 5 3 2 2 2 2 1 1 1 1 3 2 3 4 4 5 5 6 5 9 12 14 14 15 15 14 14 15 15 16 15 15 16 15
3 6 6 6 5 5 5 5 4 4 4 2 3 2 1 2 2 2 2 1 1 3 3 3 5 5 6 5 6 11 12 14 16 15 14 15 14 14 15 16 16 17 18
7 7 8 6 7 6 6 6 3 3 3 3 3 2 2 2 2 2 3 3 2 2 2 4 2 5 5 4 7 9 8 12 16 16 14 16 16 14 14 15 16 18 19
5 8 9 7 7 7 7 6 4 4 3 3 4 3 2 2 1 0 1 2 4 1 3 3 2 3 4 4 7 7 8 12 14 17 14 16 18 14 17 19 20 21 22
6 8 9 8 6 6 6 6 5 5 5 4 4 4 3 2 1 1 2 2 0 3 1 3 3 3 2 2 5 6 7 9 10 15 15 17 18 16 17 20 22 22 23
7 9 11 11 10 8 7 6 6 6 6 5 4 5 6 4 2 2 1 1 1 3 2 4 2 2 3 4 6 4 5 6 7 15 17 15 14 14 18 15 19 23 22
6 8 10 11 11 9 8 8 7 6 6 6 6 5 6 3 5 4 2 3 2 2 2 3 2 3 3 4 4 6 5 4 4 9 10 12 13 14 15 15 15 16 16
7 7 8 11 12 11 9 8 9 7 7 7 7 7 7 6 5 3 3 3 3 2 3 3 4 2 3 2 4 3 3 5 3 9 11 11 9 10 12 11 10 10 10
10 8 8 10 11 11 11 10 9 7 7 7 7 7 7 7 7 6 5 6 4 4 3 3 3 3 3 3 2 2 4 2 5 7 7 6 8 9 9 8 8 7 7
11 10 10 9 10 10 9 10 10 9 8 7 7 7 7 8 10 9 5 6 5 4 3 3 3 2 3 3 3 2 3 3 5 4 4 3 4 6 5 5 6 11 10
12 9 10 13 12 10 13 15 12 9 8 8 8 7 7 8 10 13 14 12 9 6 6 4 3 5 5 4 3 2 3 3 4 3 1 9 2 5 4 4 11 11 13
16 15 13 10 13 13 15 17 16 9 8 9 10 9 7 8 9 7 10 13 12 12 12 6 7 6 5 5 3 3 4 4 4 8 2 7 1 4 3 5 9 11 11
16 16 16 14 13 12 14 17 17 12 10 11 11 11 10 10 8 8 7 7 7 7 8 7 10 13 9 7 6 8 5 4 5 8 3 4 1 3 2 5 8 11 10
14 15 15 15 16 16 16 17 13 11 13 13 11 12 11 11 11 14 9 8 8 8 7 12 12 12 12 11 7 1 6 4 4 4 1 2 2 2 2 2 3 6 13
16 12 15 16 17 16 15 19 16 11 12 10 11 11 13 14 13 14 10 9 9 12 7 6 5 6 9 8 11 8 6 6 4 3 3 3 1 1 3 1 0 4 3
Wind_Direction
178 161 175 152 182 152 206 268 178 82 354 4 53 127 144 138 144 149 166 162 163 164 159 156 158 160 156 157 158 171 169 179 309 15 30 11 10 0 359 1 5 360 8
175 148 178 166 216 162 195 236 221 174 218 261 106 151 147 145 162 165 176 172 177 178 167 172 174 177 189 179 189 207 201 208 239 277 290 311 325 327 343 358 357 358 358
137 169 165 144 179 174 174 201 267 301 70 298 173 153 161 153 167 170 176 184 188 189 192 189 193 197 193 204 209 219 227 234 254 268 284 299 305 323 338 346 354 2 4
145 152 164 205 186 146 140 160 156 257 272 210 166 167 173 172 165 179 165 189 197 201 202 201 204 209 214 221 228 239 248 256 262 275 285 294 296 302 312 328 346 12 30
150 131 118 187 96 86 117 149 130 142 177 190 202 143 166 183 182 171 187 194 209 209 204 223 213 218 227 234 243 253 260 261 264 273 281 286 288 292 298 308 325 41 68
150 130 122 163 116 149 128 102 105 130 203 161 214 152 235 211 196 186 196 200 197 222 210 213 228 236 232 238 243 249 255 259 260 267 270 277 284 286 280 287 288 229 177
141 150 142 145 144 171 118 81 129 90 104 149 83 7 315 180 214 212 206 214 214 212 215 217 213 224 244 237 242 243 250 253 255 261 263 262 276 278 273 258 223 219 220
155 162 167 185 148 153 140 150 110 122 40 115 130 108 19 332 289 228 209 211 221 201 217 224 213 224 232 236 236 241 244 252 253 255 259 249 266 272 266 253 228 229 225
171 159 176 171 163 171 152 163 150 132 137 293 201 135 79 230 351 332 190 209 207 200 213 217 220 228 227 229 237 240 239 245 251 251 252 245 247 256 258 250 238 235 235
204 169 169 171 178 185 168 169 171 112 108 211 337 47 68 145 145 351 336 273 243 214 216 224 221 226 223 227 236 235 237 232 242 248 248 244 239 245 246 246 243 236 235
201 177 166 171 165 192 180 162 143 140 154 144 161 59 353 90 105 122 261 302 331 236 223 221 220 219 224 222 231 239 235 231 231 240 243 244 238 242 247 247 247 246 243
191 197 177 174 177 162 179 178 163 153 165 141 118 178 173 149 184 146 182 264 230 286 234 235 235 229 232 225 227 230 232 234 234 236 239 242 243 244 247 251 252 251 250
186 197 184 180 176 189 188 169 166 156 172 155 133 165 157 137 160 155 117 245 225 288 304 236 233 236 242 234 240 238 237 232 237 239 239 245 244 253 251 252 256 257 256
195 183 194 190 178 187 179 175 169 182 175 188 208 181 211 198 151 174 168 145 1 330 328 266 265 233 243 254 259 265 258 244 243 243 239 247 247 243 257 256 256 254 252
183 183 190 194 184 188 190 174 176 188 191 206 226 219 247 252 197 234 191 167 148 50 300 297 302 273 241 220 241 242 243 250 242 247 249 244 251 236 246 243 249 252 249
195 179 189 197 190 187 192 188 186 185 187 222 214 207 233 259 284 329 15 103 321 147 212 216 279 276 297 281 267 252 257 270 264 260 256 252 253 254 245 241 243 255 253
202 194 194 193 193 193 190 189 203 201 201 218 231 217 243 245 258 277 265 134 124 146 190 297 263 295 300 291 302 286 270 261 261 259 263 263 263 264 264 252 247 250 257
207 199 192 193 194 200 193 195 201 198 199 211 225 217 239 249 252 222 244 273 261 173 163 277 273 291 261 299 298 302 302 291 299 292 288 273 269 268 277 272 255 255 260
202 203 183 190 193 201 200 202 205 204 199 203 215 210 223 221 249 245 231 248 249 240 191 200 271 271 277 317 322 306 302 319 310 290 291 299 303 293 285 283 269 263 265
212 209 201 197 198 198 201 203 204 207 211 211 212 213 217 207 215 224 229 231 232 244 248 250 266 270 255 295 274 288 314 299 303 318 293 269 284 298 327 335 317 296 300
222 205 204 206 204 203 207 207 209 208 208 221 221 219 218 216 213 214 209 234 229 238 247 256 270 277 268 295 271 267 268 287 295 251 293 287 325 325 320 330 16 39 56
219 213 202 202 199 205 202 197 200 212 207 209 227 227 228 224 226 225 228 224 209 219 234 216 234 244 266 248 249 261 279 314 303 269 290 307 334 312 314 350 61 80 77
216 221 219 203 209 209 198 198 199 210 216 220 222 227 227 230 218 227 232 234 238 236 233 211 236 237 259 247 240 271 260 233 260 283 189 291 301 296 327 49 87 86 66
213 215 221 217 213 213 202 202 203 213 219 222 223 222 222 229 217 212 230 244 244 238 230 222 229 254 244 257 215 262 255 252 270 281 173 259 239 273 38 90 81 90 68
211 212 213 214 216 221 202 206 199 211 226 230 223 225 225 227 219 214 224 238 252 256 243 236 234 237 245 250 243 85 276 276 279 269 238 239 273 275 70 123 86 113 68
216 214 220 218 214 219 203 206 199 213 222 228 234 234 221 225 209 209 216 229 245 255 249 263 265 257 243 252 249 208 248 247 243 262 236 215 181 85 339 280 90 42 53